San Juan, PR

11:18 AM AST on October 19, 2017 (GMT -0400)
Luis Munoz Marin International

Weather History for TJSJ - May, 2014

Change the Weather History Date:

Saturday, May 3, 2014

  Actual Average Record
Temperature  
Mean Temperature 84 °F 81 °F  
Max Temperature 89 °F 87 °F 95 °F (1982)
Min Temperature 78 °F 76 °F 66 °F (1903)
Degree Days  
Heating Degree Days 0 0  
Month to date heating degree days 0 0  
Since 1 July heating degree days 0 0  
Cooling Degree Days 19 16  
Month to date cooling degree days 59 48  
Year to date cooling degree days 1954 1689  
Growing Degree Days 34 (Base 50)    
Moisture  
Dew Point 73 °F    
Average Humidity 67    
Maximum Humidity 79    
Minimum Humidity 55    
Precipitation  
Precipitation 0.03 in 0.20 in 2.65 in (2006)
Month to date precipitation 0.04 0.59  
Year to date precipitation 9.74 13.37  
Sea Level Pressure  
Sea Level Pressure 30.05 in    
Wind  
Wind Speed 8 mph (East)    
Max Wind Speed 21 mph    
Max Gust Speed 26 mph    
Visibility 10 miles    
Events Rain    
T = Trace of Precipitation, MM = Missing Value Source: NWS Daily Summary

Daily Weather History Graph

Daily Weather History Graph

Search for Another Location

Airport or City:

Trip Planner

Search our weather history database for the weather conditions in past years. The results will help you decide how hot, cold, wet, or windy it might be!

Date:

Astronomy

May. 03, 2014 Rise Set
Actual Time 5:55 AM AST 6:46 PM AST
Civil Twilight 5:32 AM AST 7:09 PM AST
Nautical Twilight 5:05 AM AST 7:36 PM AST
Astronomical Twilight 4:38 AM AST 8:03 PM AST
Moon 9:28 AM AST (5/3) 10:44 PM AST (5/3)
Length of Visible Light 13h 36m
Length of Day
12h 50m
Waxing Crescent, 19% of the Moon is Illuminated
May 3
Waxing Crescent
May 6
First Quarter
May 14
Full
May 21
Last Quarter
May 28
New

Hourly Weather History & Observations

Time (AST) Temp. Heat Index Dew Point Humidity Pressure Visibility Wind Dir Wind Speed Gust Speed Precip Events Conditions
12:56 AM 80.1 °F 83.8 °F 72.0 °F 76% 30.04 in 10.0 mi East 3.5 mph - N/A   Clear
1:56 AM 80.1 °F 83.8 °F 72.0 °F 76% 30.03 in 10.0 mi Calm Calm - N/A   Partly Cloudy
2:56 AM 80.1 °F 83.8 °F 72.0 °F 76% 30.02 in 10.0 mi ESE 3.5 mph - N/A   Partly Cloudy
3:56 AM 79.0 °F - 72.0 °F 79% 30.01 in 10.0 mi ESE 3.5 mph - N/A   Partly Cloudy
4:56 AM 79.0 °F - 72.0 °F 79% 30.01 in 10.0 mi East 4.6 mph - N/A   Clear
5:56 AM 79.0 °F - 72.0 °F 79% 30.04 in 10.0 mi Calm Calm - 0.01 in   Scattered Clouds
6:56 AM 80.1 °F 84.2 °F 73.0 °F 79% 30.06 in 9.0 mi SE 4.6 mph - N/A   Scattered Clouds
7:56 AM 82.0 °F 87.4 °F 73.0 °F 74% 30.08 in 9.0 mi Variable 4.6 mph - N/A   Scattered Clouds
8:56 AM 81.0 °F 85.2 °F 72.0 °F 74% 30.09 in 9.0 mi East 15.0 mph - N/A   Scattered Clouds
9:56 AM 82.9 °F 89.4 °F 73.9 °F 74% 30.10 in 9.0 mi ENE 10.4 mph - 0.00 in   Scattered Clouds
10:56 AM 89.1 °F 96.0 °F 72.0 °F 57% 30.10 in 9.0 mi East 15.0 mph - N/A   Scattered Clouds
11:56 AM 88.0 °F 92.1 °F 69.1 °F 53% 30.09 in 10.0 mi East 9.2 mph 17.3 mph N/A   Scattered Clouds
12:56 PM 87.1 °F 96.3 °F 75.0 °F 67% 30.06 in 10.0 mi NE 16.1 mph - N/A   Scattered Clouds
1:56 PM 86.0 °F 93.8 °F 73.9 °F 67% 30.04 in 10.0 mi ENE 16.1 mph 23.0 mph N/A   Scattered Clouds
2:56 PM 88.0 °F 93.8 °F 71.1 °F 57% 30.02 in 10.0 mi ENE 6.9 mph - 0.00 in   Scattered Clouds
3:56 PM 87.1 °F 92.8 °F 71.1 °F 59% 30.01 in 10.0 mi ENE 6.9 mph - N/A   Scattered Clouds
4:56 PM 84.9 °F 92.1 °F 73.9 °F 69% 30.01 in 6.0 mi SE 11.5 mph 21.9 mph 0.00 in Rain Light Rain
5:56 PM 82.9 °F 88.0 °F 72.0 °F 69% 30.01 in 10.0 mi ENE 10.4 mph - 0.03 in   Scattered Clouds
6:56 PM 82.9 °F 88.8 °F 73.0 °F 72% 30.03 in 10.0 mi East 11.5 mph - 0.01 in   Scattered Clouds
7:56 PM 82.0 °F 87.4 °F 73.0 °F 74% 30.05 in 10.0 mi East 9.2 mph - 0.01 in   Partly Cloudy
8:56 PM 82.0 °F 87.4 °F 73.0 °F 74% 30.06 in 10.0 mi ESE 4.6 mph - N/A   Partly Cloudy
9:56 PM 81.0 °F 85.8 °F 73.0 °F 77% 30.08 in 10.0 mi ESE 4.6 mph - N/A   Partly Cloudy
10:56 PM 81.0 °F 85.8 °F 73.0 °F 77% 30.08 in 10.0 mi East 4.6 mph - N/A   Partly Cloudy
11:56 PM 80.1 °F 84.2 °F 73.0 °F 79% 30.08 in 10.0 mi East 6.9 mph - N/A   Partly Cloudy